CFOSAT (43662 NORAD) Tracking and Keplerian Element Data

This shows tracking and keplerian element data for the satellite.

Feedback or suggestion? Click here.




ElementValue
Catalog43662
NameCFOSAT
Epoch Orbit39532
Epoch Day354.26876796
Epoch Year2025
RAAN359.0601
Inclination97.3614
Eccentricity0.0001939
Argument of Perigee122.5845
Mean Anonmoly237.5576
Mean Motion15.16350458
Decay Rate2.755E-05
L11 43662U 18083A 25354.26876796 .00002755 00000+0 14537-3 0 9992
L22 43662 97.3614 359.0601 0001939 122.5845 237.5576 15.16350458395321



Live tracking and technical data element details for CFOSAT (NORAD 43662). CFOSAT can be tracked NOW for your location showing map with azimuth and elevation plus other details from your city location.







IsCatalogInMostPopularTable: catalog: 43662, numindb: 396
Update: records affected: 1



GetName: 43662 CFOSAT

Hit Count: updated at: Mon, 16 Feb 2026 01:20:15 GMT